Terug naar catalogus

THOR ABLESTAR DEB

ActiefLEO
NORAD 334·DEBRIS·🇺🇸 United States

Gelanceerd Jun 29, 1961 vanaf Cape Canaveral Space Force Station

Loading…

Volgende Passages (komende 24 uur)

TLE

VersSource: Space-Track

Epoch: Sep 9, 2026, 13:56 UTC

1 00334U 61015DL  26252.58087743 -.00000023  00000-0  40272-4 0  9997
2 00334  66.9263 338.6647 0074842  37.5310 323.0961 13.91757655307806

Volg THOR ABLESTAR DEB in realtime met AllMySat

Download on the App Store